FREGAT R/B (57518 NORAD) Tracking and Keplerian Element Data

This shows tracking and keplerian element data for the satellite.

Feedback or suggestion? Click here.




ElementValue
Catalog57518
NameFREGAT R/B
Epoch Orbit38
Epoch Day236.93688945
Epoch Year2023
RAAN107.4001
Inclination64.8001
Eccentricity0.0027903
Argument of Perigee196.0729
Mean Anonmoly163.9206
Mean Motion2.13950704
Decay Rate1.3E-07
L11 57518U 23114B 23236.93688945 .00000013 00000+0 00000+0 0 9997
L22 57518 64.8001 107.4001 0027903 196.0729 163.9206 2.13950704 384



Live tracking and technical data element details for FREGAT R/B (NORAD 57518). FREGAT R/B can be tracked NOW for your location showing map with azimuth and elevation plus other details from your city location.







IsCatalogInMostPopularTable: catalog: 57518, numindb: 22
Update: records affected: 1



GetName: 57518 FREGAT R/B

Hit Count: updated at: Mon, 04 Dec 2023 04:15:44 GMT